Danbury, CT

9:40 PM EDT on March 22, 2017 (GMT -0400)
Danbury Municipal

Weather History for KDXR - September, 2014

Change the Weather History Date:

Wednesday, September 17, 2014

  Actual Average Record
Temperature  
Mean Temperature 55 °F -  
Max Temperature 68 °F 75 °F 92 °F (1991)
Min Temperature 42 °F 51 °F 32 °F (1948)
Degree Days  
Heating Degree Days 10    
Growing Degree Days 5 (Base 50)    
Moisture  
Dew Point 45 °F    
Average Humidity 83    
Maximum Humidity 100    
Minimum Humidity 39    
Precipitation  
Precipitation 0.00 in - - ()
Sea Level Pressure  
Sea Level Pressure 30.04 in    
Wind  
Wind Speed 2 mph (WSW)    
Max Wind Speed 8 mph    
Max Gust Speed -    
Visibility 7 miles    
Events      
Averages and records for this station are not official NWS values.
T = Trace of Precipitation, MM = Missing Value Source: NWS Daily Summary

Daily Weather History Graph

Daily Weather History Graph

Search for Another Location

Airport or City:

Trip Planner

Search our weather history database for the weather conditions in past years. The results will help you decide how hot, cold, wet, or windy it might be!

Date:

Astronomy

Sep. 17, 2014 Rise Set
Actual Time 6:36 AM EDT 6:59 PM EDT
Civil Twilight 6:08 AM EDT 7:27 PM EDT
Nautical Twilight 5:35 AM EDT 7:59 PM EDT
Astronomical Twilight 5:02 AM EDT 8:33 PM EDT
Moon 12:31 AM EDT (9/17) 3:10 PM EDT (9/17)
Length of Visible Light 13h 18m
Length of Day
12h 23m
Waning Crescent, 35% of the Moon is Illuminated
Sep 17
Waning Crescent
Sep 24
New
Oct 1
First Quarter
Oct 8
Full
Oct 15
Last Quarter

Hourly Weather History & Observations

Time (EDT) Temp. Windchill Dew Point Humidity Pressure Visibility Wind Dir Wind Speed Gust Speed Precip Events Conditions
12:03 AM 54.0 °F - 52.0 °F 93% 30.04 in 10.0 mi SW 3.5 mph - N/A   Mostly Cloudy
12:53 AM 52.0 °F - 50.0 °F 93% 30.04 in 10.0 mi SW 4.6 mph - N/A   Clear
1:53 AM 50.0 °F - 48.9 °F 96% 30.04 in 9.0 mi Calm Calm - N/A   Clear
2:53 AM 48.9 °F - 46.9 °F 93% 30.04 in 9.0 mi Calm Calm - N/A   Clear
3:26 AM 48.0 °F - 46.0 °F 93% 30.04 in 8.0 mi Calm Calm - N/A   Scattered Clouds
3:53 AM 48.0 °F - 45.0 °F 89% 30.04 in 9.0 mi WSW 3.5 mph - N/A   Partly Cloudy
4:24 AM 46.9 °F - 45.0 °F 93% 30.04 in 1.5 mi Calm Calm - N/A   Clear
4:33 AM 46.9 °F - 46.0 °F 97% 30.04 in 1.5 mi Calm Calm - N/A   Scattered Clouds
4:41 AM 46.9 °F - 46.0 °F 97% 30.04 in 2.5 mi Calm Calm - N/A   Mostly Cloudy
4:48 AM 46.4 °F - 44.6 °F 93% 30.04 in 10.0 mi Calm Calm - N/A   Mostly Cloudy
4:51 AM 46.4 °F - 44.6 °F 93% 30.04 in 1.5 mi Calm Calm - N/A   Overcast
4:53 AM 46.0 °F - 45.0 °F 96% 30.04 in 0.8 mi Calm Calm - N/A   Mist
5:53 AM 44.1 °F - 43.0 °F 96% 30.06 in 0.8 mi Calm Calm - N/A   Mist
5:58 AM 44.1 °F 42.5 °F 43.0 °F 96% 30.06 in 2.0 mi SW 3.5 mph - N/A   Mostly Cloudy
6:05 AM 44.1 °F - 42.1 °F 93% 30.06 in 10.0 mi Calm Calm - N/A   Mostly Cloudy
6:16 AM 45.0 °F - 44.1 °F 97% 30.06 in 1.8 mi Calm Calm - N/A   Mostly Cloudy
6:21 AM 45.0 °F - 44.1 °F 97% 30.06 in 0.8 mi Calm Calm - N/A   Mist
6:49 AM 42.8 °F - 42.8 °F 100% 30.07 in 1.5 mi Calm Calm - N/A   Overcast
6:51 AM 44.6 °F - 42.8 °F 93% 30.07 in 4.0 mi Calm Calm - N/A   Overcast
6:53 AM 44.1 °F - 43.0 °F 96% 30.07 in 8.0 mi Calm Calm - N/A   Overcast
7:00 AM 44.1 °F - 42.1 °F 93% 30.07 in 1.0 mi Calm Calm - N/A   Mist
7:37 AM 46.9 °F - 45.0 °F 93% 30.07 in 9.0 mi Calm Calm - N/A   Clear
7:53 AM 46.9 °F - 46.0 °F 97% 30.07 in 10.0 mi Calm Calm - N/A   Clear
8:53 AM 55.0 °F - 48.9 °F 80% 30.07 in 10.0 mi Calm Calm - N/A   Clear
9:53 AM 60.1 °F - 50.0 °F 69% 30.07 in 10.0 mi Calm Calm - N/A   Clear
10:53 AM 64.0 °F - 45.0 °F 50% 30.06 in 10.0 mi Variable 4.6 mph - N/A   Clear
11:53 AM 64.9 °F - 42.1 °F 43% 30.05 in 10.0 mi West 8.1 mph - N/A   Clear
12:53 PM 66.0 °F - 44.1 °F 45% 30.04 in 10.0 mi NW 8.1 mph - N/A   Clear
2:53 PM 64.9 °F - 41.0 °F 42% 29.99 in 10.0 mi Calm Calm - N/A   Partly Cloudy
3:53 PM 66.9 °F - 41.0 °F 39% 29.98 in 10.0 mi Calm Calm - N/A   Partly Cloudy
4:53 PM 68.0 °F - 44.1 °F 42% 29.98 in 10.0 mi NNW 6.9 mph - N/A   Scattered Clouds
5:53 PM 66.0 °F - 42.1 °F 42% 29.99 in 10.0 mi NW 5.8 mph - N/A   Clear
6:53 PM 59.0 °F - 48.9 °F 69% 29.99 in 10.0 mi Calm Calm - N/A   Clear
7:53 PM 54.0 °F - 48.9 °F 83% 30.00 in 10.0 mi SW 3.5 mph - N/A   Clear
8:53 PM 50.0 °F - 46.9 °F 89% 30.01 in 10.0 mi SW 4.6 mph - N/A   Clear
9:53 PM 48.9 °F - 46.9 °F 93% 30.01 in 10.0 mi SW 3.5 mph - N/A   Clear
10:53 PM 48.0 °F - 45.0 °F 89% 30.01 in 10.0 mi SW 4.6 mph - N/A   Clear
11:53 PM 46.9 °F - 45.0 °F 93% 30.00 in 10.0 mi WSW 4.6 mph - N/A   Clear